Location: Parkway Village
(35.0643°N, 89.9062°W)
Time: 15:40:06
(UTC+00:00)

BlueWalker 3 - Pass Details

Date: 22 August 2024
Orbit: 475 x 487 km, 53.2° (Epoch: 17 September)

Event Time Altitude Azimuth Distance (km) Brightness Sun altitude
Exits shadow 09:35:42 - 323° (NW) 2,357 5.3 -21.4°
Reaches altitude 10° 09:37:29 10° 331° (NNW) 1,681 4.6 -21.0°
Maximum altitude 09:41:00 36° 39° (NE) 798 3.5 -20.4°
Drops below altitude 10° 09:44:31 10° 107° (ESE) 1,674 5.1 -19.8°
Sets 09:46:48 0° 116° (ESE) 2,552 6.0 -19.4°
